Location: Poughquag
(41.6090°N, 73.6820°W)
Time: 09:32:42
(UTC-04:00)

ACS3 Solar Sail - Pass Details

Date: 25 June 2024
Orbit: 992 x 1023 km, 97.4° (Epoch: 11 July)

Event Time Altitude Azimuth Distance (km) Brightness Sun altitude
Exits shadow 22:30:43 21° 174° (S) 2,093 6.0 -16.7°
Maximum altitude 22:35:09 78° 259° (W) 1,019 4.9 -17.1°
Drops below altitude 10° 22:41:23 10° 346° (NNW) 2,765 8.3 -17.8°
Sets 22:43:53 0° 347° (NNW) 3,717 9.2 -18.0°
